Location: Austin
(30.3000°N, 97.7500°W)
Time: 11:30:08
(UTC-05:00)

Cosmos 1818 - Pass Details

Date: 05 September 2024
Orbit: 770 x 801 km, 65.0° (Epoch: 11 September)

Event Time Altitude Azimuth Distance (km) Brightness Sun altitude
Rises 21:22:03 0° 213° (SSW) 3,267 6.9 -20.5°
Reaches altitude 10° 21:24:28 10° 216° (SW) 2,346 6.2 -21.0°
Maximum altitude 21:29:50 66° 298° (WNW) 863 3.9 -22.0°
Drops below altitude 10° 21:35:16 10° 21° (NNE) 2,373 6.1 -23.1°
Sets 21:37:44 0° 24° (NNE) 3,308 6.8 -23.6°
